Time,TemperatureF,DewpointF,PressureIn,WindDirection,WindDirectionDegrees,WindSpeedMPH,WindSpeedGustMPH,Humidity,HourlyPrecipIn,Conditions,Clouds,dailyrainin,SoftwareType,DateUTC
2013-01-23 12:10:00,69.0,46.2,29.98,South,179,0.0,0.0,44,0.00,,,0.00,Wunderground v.1.15,2013-01-23 20:10:00,
2013-01-23 12:20:00,69.0,46.2,29.98,South,179,0.0,0.0,44,0.00,,,0.00,Wunderground v.1.15,2013-01-23 20:20:00,
2013-01-23 12:30:00,69.1,46.3,29.98,South,179,0.0,0.0,44,0.00,,,0.00,Wunderground v.1.15,2013-01-23 20:30:00,
2013-01-23 12:40:00,69.1,46.3,29.98,South,179,0.0,0.0,44,0.00,,,0.00,Wunderground v.1.15,2013-01-23 20:40:00,
2013-01-23 12:50:00,69.2,46.4,29.99,South,179,0.0,0.0,44,0.00,,,0.00,Wunderground v.1.15,2013-01-23 20:50:00,
2013-01-23 13:00:00,69.3,46.4,29.99,South,179,0.0,0.0,44,0.00,,,0.00,Wunderground v.1.15,2013-01-23 21:00:00,
2013-01-23 13:40:00,69.7,47.4,29.98,South,179,0.0,0.0,45,0.00,,,0.00,Wunderground v.1.15,2013-01-23 21:40:00,
2013-01-23 13:50:00,69.8,47.5,29.98,South,179,0.0,0.0,45,0.00,,,0.00,Wunderground v.1.15,2013-01-23 21:50:00,
2013-01-23 14:00:00,69.8,47.5,29.98,South,179,0.0,0.0,45,0.00,,,0.00,Wunderground v.1.15,2013-01-23 22:00:00,
2013-01-23 14:10:00,69.9,47.6,29.98,South,179,0.0,0.0,45,0.00,,,0.00,Wunderground v.1.15,2013-01-23 22:10:00,
2013-01-23 14:20:00,70.0,47.7,29.97,South,179,0.0,0.0,45,0.00,,,0.00,Wunderground v.1.15,2013-01-23 22:20:00,
2013-01-23 14:30:00,70.1,47.8,29.97,South,179,0.0,0.0,45,0.00,,,0.00,Wunderground v.1.15,2013-01-23 22:30:00,
2013-01-23 14:40:00,70.1,47.8,29.97,South,179,0.0,0.0,45,0.00,,,0.00,Wunderground v.1.15,2013-01-23 22:40:00,
2013-01-23 14:50:00,70.2,47.9,29.98,South,179,0.0,0.0,45,0.00,,,0.00,Wunderground v.1.15,2013-01-23 22:50:00,
2013-01-23 15:00:00,70.3,47.9,29.99,South,179,0.0,0.0,45,0.00,,,0.00,Wunderground v.1.15,2013-01-23 23:00:00,
2013-01-23 15:10:00,70.3,47.9,30.00,South,179,0.0,0.0,45,0.00,,,0.00,Wunderground v.1.15,2013-01-23 23:10:00,
2013-01-23 15:20:00,70.3,47.9,30.01,South,179,0.0,0.0,45,0.00,,,0.00,Wunderground v.1.15,2013-01-23 23:20:00,
2013-01-23 15:30:00,70.3,47.3,30.01,South,179,0.0,0.0,44,0.00,,,0.00,Wunderground v.1.15,2013-01-23 23:30:00,
2013-01-23 15:40:00,70.2,47.3,30.01,South,179,0.0,0.0,44,0.00,,,0.00,Wunderground v.1.15,2013-01-23 23:40:00,
2013-01-23 15:50:00,70.2,47.3,29.99,South,179,0.0,0.0,44,0.00,,,0.00,Wunderground v.1.15,2013-01-23 23:50:00,
2013-01-23 16:00:00,70.1,47.2,29.99,South,179,0.0,0.0,44,0.00,,,0.00,Wunderground v.1.15,2013-01-24 00:00:00,
2013-01-23 16:10:00,70.0,47.7,30.00,South,179,0.0,0.0,45,0.00,,,0.00,Wunderground v.1.15,2013-01-24 00:10:00,
2013-01-23 16:20:00,69.9,47.0,30.00,South,179,0.0,0.0,44,0.00,,,0.00,Wunderground v.1.15,2013-01-24 00:20:00,
2013-01-23 16:30:00,69.8,46.9,30.00,South,179,0.0,0.0,44,0.00,,,0.00,Wunderground v.1.15,2013-01-24 00:30:00,
2013-01-23 16:40:00,69.6,47.3,30.00,South,179,0.0,0.0,45,0.00,,,0.00,Wunderground v.1.15,2013-01-24 00:40:00,
2013-01-23 16:50:00,69.6,47.3,30.00,South,179,0.0,0.0,45,0.00,,,0.00,Wunderground v.1.15,2013-01-24 00:50:00,
2013-01-23 17:00:00,69.5,47.2,30.01,South,179,0.0,0.0,45,0.00,,,0.00,Wunderground v.1.15,2013-01-24 01:00:00,